[[{"header":{"parameterUnit":"m.s-1","parameterCategory":1,"la1":30.2991,"la2":30.254,"lo1":-89.0895,"lo2":-89.0444,"dy":0.0017,"dx":0.0017,"nx":28,"ny":28,"refTime":"2024-05-17T09:00:00:Z","depth":0,"parameterNumber":2,"parameterNumberName":"U-component_of_WINDS"},"data":[0,0,0,0,0,0,0,0,0,0,0,0,0,0,0,0,0,0,0,0,0,0,0,0,0,0,0,0,0,0,0,0,0,0,0,0,0,0,0,0,0,0,0,0,0,0,0,0,0,0,0,0,0,0,0,0,0,0,0.7268,0.7269,0,0.7348,0.7349,0.735,0.742,0.7421,0.7422,0.7423,0.7503,0.7504,0.7505,0,0,0,0,0,0,0,0,0,0,0,0,0,0.7173,0.7174,0.7268,0.7269,0.727,0.7348,0.7349,0.735,0.742,0.7421,0.7422,0.7423,0.7502,0.7504,0.7505,0,0,0,0,0,0,0,0,0,0,0,0,0,0.723,0.7175,0.7267,0.7314,0.7319,0.7348,0.7349,0.735,0.742,0.7421,0.7422,0.7424,0.7502,0.7504,0.7506,0.7493,0,0,0.7512,0.7513,0,0,0,0,0,0,0,0,0.7226,0.7233,0.7306,0.7311,0.7317,0.7375,0.7345,0.7398,0.742,0.7382,0.7423,0.7424,0.7459,0.7465,0.7477,0.7497,0.7501,0.7512,0.7513,0.7514,0.7515,0,0,0,0,0,0,0,0.7222,0.723,0.7299,0.7307,0.7314,0.733,0.734,0.7355,0.7412,0.7385,0.739,0.7399,0.7462,0.7475,0.7479,0.7502,0.7512,0.7514,0.7515,0.7516,0.7515,0.7514,0,0,0,0,0,0,0.7212,0.7226,0.7297,0.7302,0.7274,0.7331,0.7342,0.7355,0.7412,0.7422,0.7398,0.7402,0.7471,0.7477,0.7482,0.7471,0.7514,0.7516,0.7517,0.7517,0.7515,0.7514,0,0,0,0,0,0,0.7209,0.7217,0.7294,0.7266,0.7277,0.7331,0.7346,0.7356,0.7369,0.7422,0.7432,0.74,0.7472,0.748,0.749,0.7475,0.7517,0.7519,0.7518,0.7516,0.7514,0.7449,0,0,0,0,0,0,0.7206,0.7216,0.7212,0.7265,0.7278,0.73,0.7345,0.7357,0.7373,0.7379,0.7427,0.7437,0.7474,0.7487,0.7492,0.7479,0.752,0.752,0.7517,0.7515,0.7453,0.7445,0.7439,0,0,0,0,0,0.7203,0.7191,0.7212,0.722,0.7275,0.7299,0.7307,0.735,0.7371,0.7368,0.7402,0.7435,0.7476,0.7487,0.7494,0.7481,0.7521,0.7518,0.7515,0.7456,0.7447,0.7439,0,0,0,0,0,0,0.7134,0.7198,0.7223,0.7227,0.7258,0.7311,0.7308,0.7339,0.7363,0.7368,0.742,0.7431,0.7435,0.7459,0.7471,0.7472,0.7503,0.7501,0.7456,0.7447,0.744,0.7434,0.7522,0,0,0,0,0,0.712,0.7135,0.719,0.7189,0.7203,0.7253,0.7265,0.7296,0.7329,0.7342,0.7377,0.7407,0.7427,0.7439,0.746,0.7457,0.7468,0.7451,0.7444,0.7438,0.7436,0.7435,0.7428,0.7505,0.7505,0.7505,0,0,0.709,0.7127,0.7133,0.7176,0.7203,0.7217,0.7263,0.7276,0.7287,0.7344,0.7356,0.7383,0.742,0.7423,0.7427,0.7443,0.7418,0.7435,0.743,0.7431,0.7432,0.7424,0.7418,0.7503,0.7503,0.7503,0,0,0.7042,0.7072,0.7075,0.7101,0.7141,0.7174,0.7175,0.7224,0.7244,0.7257,0.73,0.7313,0.7346,0.7371,0.7387,0.7349,0.738,0.7354,0.7317,0.7316,0.731,0.7305,0.729,0.7284,0.7352,0.7352,0.7352,0,0.7,0.7024,0.7071,0.7082,0.7099,0.7152,0.7154,0.7177,0.7222,0.7232,0.725,0.7293,0.7321,0.7331,0.7322,0.7334,0.7335,0.7348,0.7307,0.7302,0.7298,0.7284,0.7279,0.7348,0.7349,0.7349,0.7349,0,0.6969,0.6984,0.6981,0.7024,0.7041,0.7046,0.7094,0.7106,0.7135,0.7166,0.7178,0.7214,0.7243,0.7248,0.7277,0.7262,0.7271,0.7297,0.7329,0.7287,0.7275,0.727,0.7343,0.7344,0.7345,0.7346,0,0,0.688,0.6949,0.6947,0.6967,0.7015,0.7028,0.7036,0.7065,0.7073,0.7102,0.7109,0.7136,0.7161,0.718,0.7211,0.7211,0.7176,0.7237,0.7239,0.7224,0.716,0.7139,0.7132,0.7198,0.7197,0.7196,0.7157,0,0.684,0.6858,0.6901,0.6905,0.692,0.697,0.6977,0.7007,0.7036,0.7052,0.7084,0.7102,0.7134,0.7145,0.7147,0.718,0.7164,0.7184,0.7204,0.7204,0.7192,0.7126,0.7104,0.7065,0.7153,0.7152,0.7151,0,0.6795,0.6822,0.6827,0.6875,0.6882,0.6888,0.6917,0.6932,0.6967,0.6988,0.7009,0.7044,0.7054,0.7085,0.7099,0.7111,0.7122,0.7139,0.7139,0.7141,0.7174,0.7126,0.7054,0.7047,0.7145,0.7145,0.7146,0,0.6728,0.6765,0.6774,0.6789,0.6844,0.6847,0.687,0.6906,0.692,0.6946,0.6956,0.6982,0.6996,0.7015,0.7056,0.7075,0.7065,0.71,0.7082,0.7081,0.7077,0.7076,0.7004,0.7086,0.7086,0.7086,0.7086,0,0.6678,0.6679,0.6744,0.6749,0.6752,0.6801,0.6802,0.683,0.6861,0.6871,0.6917,0.6925,0.698,0.6994,0.7027,0.7033,0.7039,0.7055,0.7064,0.7051,0.7048,0.7058,0.7061,0.7084,0.7085,0.7085,0.7085,0,0.6604,0.6647,0.6659,0.6711,0.6724,0.6723,0.6767,0.6773,0.6805,0.6818,0.6823,0.6873,0.6892,0.6936,0.6967,0.6988,0.6986,0.7002,0.6974,0.6979,0.6959,0.6959,0.6889,0.6882,0.6968,0.6968,0.6967,0,0.6568,0.6571,0.6622,0.6633,0.6654,0.6671,0.6686,0.6734,0.6748,0.6787,0.6788,0.6811,0.6832,0.6861,0.6899,0.6923,0.6939,0.6912,0.6942,0.6929,0.6937,0.6935,0.6935,0.6905,0.6904,0.6903,0.6902,0,0.65,0.6522,0.6542,0.657,0.6587,0.6611,0.6637,0.6643,0.6697,0.671,0.6731,0.6747,0.6779,0.6801,0.683,0.6853,0.6886,0.6893,0.689,0.6876,0.6859,0.6866,0.6954,0.6894,0.6895,0.6895,0.6896,0.6896,0.6444,0.6448,0.6485,0.6506,0.6531,0.6554,0.6562,0.6595,0.6613,0.6643,0.6671,0.6688,0.6722,0.6765,0.6786,0.68,0.6817,0.6813,0.6811,0.6809,0.6803,0.6858,0.6806,0.6806,0.6806,0.6806,0.6807,0,0.6377,0.6404,0.6422,0.6458,0.6474,0.6505,0.6536,0.6547,0.6562,0.6591,0.6611,0.6634,0.6655,0.6695,0.672,0.6723,0.6739,0.6728,0.6727,0.6732,0.6787,0.6787,0.6715,0.6715,0.6715,0.6715,0.6715,0.6715,0.6344,0.6352,0.6378,0.6398,0.6425,0.6443,0.6457,0.6479,0.6502,0.6526,0.6545,0.6571,0.6604,0.6631,0.6652,0.6663,0.6669,0.6653,0.6668,0.6719,0.6728,0.6736,0.6736,0.6654,0.6654,0.6612,0.6611,0.6611]},{"header":{"parameterUnit":"m.s-1","parameterCategory":1,"la1":30.2991,"la2":30.254,"lo1":-89.0895,"lo2":-89.0444,"dy":0.0017,"dx":0.0017,"nx":28,"ny":28,"refTime":"2024-05-17T09:00:00:Z","depth":0,"parameterNumber":3,"parameterNumberName":"V-component_of_WINDS"},"data":[0,0,0,0,0,0,0,0,0,0,0,0,0,0,0,0,0,0,0,0,0,0,0,0,0,0,0,0,0,0,0,0,0,0,0,0,0,0,0,0,0,0,0,0,0,0,0,0,0,0,0,0,0,0,0,0,0,0,-1.1152,-1.1152,0,-1.1129,-1.1129,-1.1128,-1.11,-1.11,-1.11,-1.1099,-1.1075,-1.1075,-1.1075,0,0,0,0,0,0,0,0,0,0,0,0,0,-1.1174,-1.1174,-1.1152,-1.1152,-1.1152,-1.1129,-1.1129,-1.1128,-1.1101,-1.11,-1.1099,-1.1099,-1.1075,-1.1075,-1.1075,0,0,0,0,0,0,0,0,0,0,0,0,0,-1.1159,-1.1173,-1.1152,-1.1135,-1.1133,-1.1129,-1.1129,-1.1128,-1.1101,-1.11,-1.1099,-1.1099,-1.1075,-1.1075,-1.1075,-1.1085,0,0,-1.1074,-1.1074,0,0,0,0,0,0,0,0,-1.116,-1.1158,-1.1138,-1.1136,-1.1134,-1.1117,-1.1127,-1.1114,-1.1101,-1.1113,-1.1099,-1.1098,-1.109,-1.1088,-1.1085,-1.1084,-1.1083,-1.1074,-1.1073,-1.1073,-1.1073,0,0,0,0,0,0,0,-1.1161,-1.1159,-1.1143,-1.1138,-1.1136,-1.1129,-1.1126,-1.1125,-1.1105,-1.1112,-1.111,-1.1107,-1.1089,-1.1086,-1.1084,-1.1083,-1.1074,-1.1073,-1.1073,-1.1073,-1.1091,-1.1091,0,0,0,0,0,0,-1.1164,-1.116,-1.1144,-1.1142,-1.1146,-1.1129,-1.1126,-1.1123,-1.1105,-1.1102,-1.1108,-1.1106,-1.1086,-1.1085,-1.1083,-1.1095,-1.1073,-1.1073,-1.1073,-1.109,-1.1091,-1.1092,0,0,0,0,0,0,-1.1165,-1.1163,-1.1145,-1.1151,-1.1148,-1.1129,-1.1127,-1.1123,-1.112,-1.1102,-1.1099,-1.1108,-1.1086,-1.1084,-1.1085,-1.1094,-1.1073,-1.1072,-1.1089,-1.109,-1.1091,-1.1118,0,0,0,0,0,0,-1.1166,-1.1164,-1.1167,-1.1151,-1.1148,-1.1147,-1.1127,-1.1123,-1.1119,-1.1117,-1.1102,-1.1099,-1.1085,-1.1086,-1.1085,-1.1093,-1.1072,-1.1088,-1.109,-1.1091,-1.1116,-1.1119,-1.1122,0,0,0,0,0,-1.1167,-1.1175,-1.1167,-1.1166,-1.1152,-1.1147,-1.1145,-1.113,-1.112,-1.1124,-1.1113,-1.1099,-1.1093,-1.1086,-1.1085,-1.1093,-1.1088,-1.1089,-1.1091,-1.1114,-1.1119,-1.1122,0,0,0,0,0,0,-1.1192,-1.1173,-1.1164,-1.1168,-1.1159,-1.1143,-1.1146,-1.1135,-1.1129,-1.1127,-1.1108,-1.1105,-1.1108,-1.1101,-1.1094,-1.1103,-1.1089,-1.109,-1.1107,-1.1111,-1.1114,-1.1115,-1.1072,0,0,0,0,0,-1.1199,-1.1197,-1.118,-1.1185,-1.1181,-1.1165,-1.1162,-1.1151,-1.1142,-1.1138,-1.1127,-1.1119,-1.1115,-1.1113,-1.1108,-1.1115,-1.1112,-1.112,-1.1123,-1.1126,-1.1127,-1.1131,-1.1134,-1.1097,-1.1097,-1.1097,0,0,-1.1211,-1.12,-1.12,-1.119,-1.1182,-1.1181,-1.1162,-1.1161,-1.116,-1.1138,-1.1138,-1.113,-1.112,-1.1124,-1.1126,-1.1118,-1.1137,-1.1128,-1.113,-1.113,-1.1133,-1.1136,-1.1139,-1.1098,-1.1097,-1.1097,0,0,-1.1233,-1.1225,-1.1228,-1.1222,-1.121,-1.12,-1.1201,-1.1186,-1.118,-1.118,-1.1164,-1.1163,-1.1157,-1.115,-1.1146,-1.1167,-1.1154,-1.1166,-1.1183,-1.1187,-1.1189,-1.1192,-1.1199,-1.1202,-1.1168,-1.1168,-1.1168,0,-1.125,-1.1247,-1.1232,-1.1232,-1.1228,-1.1209,-1.1212,-1.1207,-1.1195,-1.1192,-1.1184,-1.1177,-1.1169,-1.1171,-1.1177,-1.1174,-1.1175,-1.1167,-1.119,-1.1193,-1.1195,-1.1202,-1.1205,-1.1169,-1.1169,-1.1169,-1.1169,0,-1.1269,-1.1267,-1.1271,-1.126,-1.1257,-1.1259,-1.1244,-1.1243,-1.1233,-1.1223,-1.1224,-1.1214,-1.1207,-1.1207,-1.1197,-1.1209,-1.1204,-1.1194,-1.1179,-1.12,-1.1206,-1.1209,-1.1171,-1.1171,-1.117,-1.117,0,0,-1.1304,-1.1286,-1.1288,-1.1283,-1.127,-1.1269,-1.127,-1.1264,-1.1263,-1.1256,-1.1257,-1.1253,-1.1244,-1.1239,-1.1228,-1.1232,-1.125,-1.1221,-1.122,-1.1226,-1.1262,-1.1269,-1.1272,-1.1242,-1.1242,-1.1243,-1.1263,0,-1.1323,-1.1324,-1.1311,-1.1316,-1.1315,-1.1298,-1.1299,-1.1292,-1.1283,-1.1281,-1.1272,-1.1269,-1.1257,-1.1254,-1.1257,-1.1247,-1.1256,-1.1245,-1.1242,-1.1242,-1.1244,-1.1276,-1.1283,-1.1302,-1.1265,-1.1265,-1.1266,0,-1.1345,-1.1339,-1.1344,-1.1332,-1.1331,-1.1333,-1.1326,-1.1325,-1.1316,-1.131,-1.1306,-1.1294,-1.1295,-1.1282,-1.1284,-1.1277,-1.1275,-1.127,-1.1271,-1.1269,-1.1254,-1.1274,-1.1308,-1.1311,-1.1269,-1.1269,-1.1269,0,-1.137,-1.1364,-1.1366,-1.1363,-1.1349,-1.135,-1.1345,-1.1336,-1.1333,-1.1328,-1.1326,-1.1322,-1.1319,-1.1316,-1.1303,-1.1295,-1.1306,-1.1292,-1.1301,-1.1301,-1.1303,-1.1302,-1.1336,-1.1303,-1.1303,-1.1303,-1.1303,0,-1.1391,-1.1395,-1.1377,-1.1378,-1.1382,-1.1368,-1.1372,-1.1365,-1.1357,-1.1357,-1.1343,-1.1343,-1.1327,-1.1325,-1.1316,-1.1319,-1.1318,-1.1313,-1.131,-1.1313,-1.1314,-1.1311,-1.1309,-1.1304,-1.1304,-1.1304,-1.1304,0,-1.1419,-1.1407,-1.1408,-1.1396,-1.1393,-1.1396,-1.1385,-1.1386,-1.1378,-1.1378,-1.1377,-1.1364,-1.1361,-1.1349,-1.1344,-1.1338,-1.1344,-1.1339,-1.1346,-1.1344,-1.1353,-1.1352,-1.1385,-1.1389,-1.1355,-1.1355,-1.1355,0,-1.1433,-1.1435,-1.1423,-1.1422,-1.1417,-1.1416,-1.1414,-1.14,-1.1398,-1.139,-1.1392,-1.1389,-1.1385,-1.1383,-1.1373,-1.1369,-1.1363,-1.1375,-1.1362,-1.1366,-1.1363,-1.1362,-1.1363,-1.1377,-1.1378,-1.1378,-1.1378,0,-1.1459,-1.1453,-1.145,-1.1446,-1.1444,-1.1439,-1.1434,-1.1435,-1.142,-1.1419,-1.1416,-1.1414,-1.1409,-1.1406,-1.1401,-1.1395,-1.1385,-1.1383,-1.1385,-1.1387,-1.1392,-1.1389,-1.1353,-1.1382,-1.1381,-1.1381,-1.1381,-1.1381,-1.1479,-1.1481,-1.1473,-1.1471,-1.1466,-1.1462,-1.1462,-1.1454,-1.1452,-1.1447,-1.144,-1.1439,-1.1432,-1.1424,-1.1419,-1.1419,-1.1412,-1.1415,-1.1415,-1.1416,-1.1418,-1.1393,-1.1418,-1.1418,-1.1417,-1.1417,-1.1417,0,-1.1504,-1.1499,-1.1497,-1.149,-1.1489,-1.148,-1.1474,-1.1473,-1.1472,-1.1467,-1.1464,-1.1462,-1.146,-1.145,-1.1447,-1.1448,-1.1443,-1.1448,-1.1447,-1.1446,-1.1424,-1.1422,-1.1452,-1.1452,-1.1452,-1.1452,-1.1452,-1.1452,-1.1516,-1.1519,-1.1513,-1.1513,-1.1507,-1.1506,-1.1504,-1.15,-1.1496,-1.1494,-1.1492,-1.1486,-1.148,-1.1476,-1.1473,-1.1471,-1.147,-1.1476,-1.1472,-1.1451,-1.1447,-1.1444,-1.1443,-1.1476,-1.1476,-1.1494,-1.1494,-1.1494]}]]